THOR ABLESTAR DEB, 530

Orbit data source: Space-Track

THOR ABLESTAR DEB, 530 is space debris in LEO originally from a launch on Thu, 29 Jun 1961 UTC launched from the Air Force Eastern Test Range (AFETR). Debris objects in space refer to the collection of defunct objects orbiting the Earth. Examples of debris include non-operational satellites, rocket bodies, and fragments generated from explosions, collisions, or faulty payload assembly.

Loading next visibility...
Identifier
530, 1961-015FU
Orbit
LEO
Country
Flag of USUS
Related business
Manufacturer
Unknown
Mission
Spacecraft
Bus & Motor
Unknown
Mass
Unknown
Launch date (UTC)
1961-06-29 (65 years ago)
Launch vehicle
Unknown
Launch site
Air Force Eastern Test Range (AFETR)
Object type
Payload
Rocket body
Debris
Shape & HBR
Unknown shape, 0.1 m
Radar Cross Section
Medium (>0.1 m² and <1 m²)

Expand to show TLE details & history
Last TLE update: 19 hours ago

TLE from 19 hours ago
0 THOR ABLESTAR DEB
1 00530U 61015FU  26236.16232576  .00000082  00000-0  10678-3 0  9997
2 00530  66.8796 159.4244 0073524 122.4884 238.3335 13.99458416317133
Epoch: 2026-08-24T03:53Z
TLE epoch observation values (Epoch: 2026-08-24T03:53:44.945Z)
Latitude
Longitude
128.53914°
Altitude
926.124 km
Speed
7.375 km/s
True Right ascension
10h 37m 41s
True Declination
0° 00' 00"
Sunlit
Object was in daylight at epoch
Visualization orbit readout
Latitude
Unknown
Longitude
Unknown
Altitude
Unknown
Speed
Unknown
Apparent Right ascension
Unknown
Apparent Declination
Unknown
Sunlit
N/A
Visualization observer readout
Local Sidereal Time
14:05:41
Azimuth
Unknown
Elevation
Unknown
Doppler factor
Unknown
Orbital elements
Apogee altitude
947.517 km
Perigee altitude
840.581 km
Semi-major axis
7,272.186 km
Eccentricity
0.00735
Inclination
66.8796°
RAAN
159.4244°
Arg. of periapsis
122.4884°
True anomaly
237.61988°
Mean anomaly
238.3335°
Eccentric anomaly
237.97634°
Mean motion
3.49982 °/min
Orbital period
102.86 mins
BSTAR
0.00010678
Loading maneuver chart data...
Computing Atmospheric mass density...
Loading historical data...
Loading historical data...
Loading historical data...
Loading historical data...
Loading historical data...
Loading historical data...
Loading historical data...

Documentation

Showing up to 5 results
|